DW7584 Weather Reports


time (UTC)temp
C
wind
direction
speed
KPH
gust
KPH
rain 1hr
cm
rain 24hr
cm
rain mn
cm
humidity
%
barometer
mb
20260906161537 22 0.0 1.6 0.00 0.03 0.03 81 1023.7
20260906160517 22 68 4.8 9.7 0.00 0.03 0.03 79 1023.9
20260906155517 22 45 3.2 8.0 0.00 0.03 0.03 82 1023.7
20260906154537 22 68 3.2 9.7 0.00 0.03 0.03 82 1023.6
20260906153517 22 68 3.2 8.0 0.00 0.03 0.03 85 1023.7
20260906152517 21 68 1.6 8.0 0.00 0.03 0.03 85 1023.6
20260906151516 21 68 3.2 8.0 0.00 0.03 0.03 86 1023.7
20260906150516 21 90 1.6 6.4 0.00 0.03 0.03 85 1023.9
20260906145537 21 90 3.2 8.0 0.00 0.03 0.03 86 1023.6
20260906144517 21 90 1.6 11.3 0.00 0.03 0.03 86 1023.5
20260906143517 21 90 3.2 8.0 0.00 0.03 0.03 86 1023.4
20260906142516 20 68 3.2 8.0 0.00 0.03 0.03 90 1023.4
20260906141517 20 90 4.8 9.7 0.00 0.03 0.03 90 1023.6
20260906140516 20 68 4.8 9.7 0.00 0.03 0.03 90 1023.5
20260906135517 20 68 3.2 8.0 0.00 0.03 0.03 93 1023.6
20260906134518 19 68 3.2 8.0 0.00 0.03 0.03 92 1023.7
20260906133516 18 45 3.2 6.4 0.00 0.03 0.03 93 1023.5
20260906132517 18 45 4.8 8.0 0.00 0.03 0.03 93 1023.4
20260906131516 18 45 3.2 6.4 0.00 0.03 0.03 94 1023.4
20260906130516 17 23 3.2 4.8 0.00 0.03 0.03 94 1023.3
20260906125516 17 45 3.2 4.8 0.00 0.03 0.03 95 1023.3
20260906124516 16 45 3.2 4.8 0.00 0.03 0.03 95 1023.1
20260906123536 16 45 3.2 6.4 0.00 0.03 0.03 95 1023.0
20260906122516 16 23 1.6 3.2 0.00 0.03 0.03 96 1023.0
20260906121516 15 23 3.2 6.4 0.00 0.03 0.03 97 1023.0
20260906120516 15 0 1.6 3.2 0.00 0.03 0.03 97 1023.0
20260906115517 15 0.0 1.6 0.00 0.03 0.03 97 1022.8
20260906114516 15 0.0 3.2 0.03 0.03 0.03 98 1022.6
20260906113516 15 0.0 1.6 0.03 0.03 0.03 98 1022.6
20260906112516 15 23 1.6 3.2 0.03 0.03 0.03 98 1022.3
20260906111516 14 0.0 1.6 0.03 0.03 0.03 98 1022.1
20260906110516 14 0.0 3.2 0.03 0.03 0.03 98 1021.9
20260906105517 14 0.0 1.6 0.03 0.03 0.03 98 1022.0
20260906104516 14 0.0 1.6 0.00 0.00 0.00 98 1022.1
20260906103516 14 0.0 0.0 0.00 0.00 0.00 98 1022.1
20260906102516 14 0.0 0.0 0.00 0.00 0.00 98 1022.0
20260906101516 14 0.0 0.0 0.00 0.00 0.00 98 1022.0
20260906100516 14 0.0 0.0 0.00 0.00 0.00 97 1022.2
20260906095516 14 0.0 0.0 0.00 0.00 0.00 97 1022.1
20260906094516 14 0.0 0.0 0.00 0.00 0.00 97 1022.1
20260906093517 14 0.0 0.0 0.00 0.00 0.00 97 1022.0
20260906092516 15 0.0 0.0 0.00 0.00 0.00 97 1021.8
20260906091518 14 0.0 0.0 0.00 0.00 0.00 97 1021.7
20260906090516 14 0.0 0.0 0.00 0.00 0.00 97 1021.8
20260906085517 14 0.0 0.0 0.00 0.00 0.00 97 1021.8
20260906084517 14 0.0 0.0 0.00 0.00 0.00 97 1021.9
20260906083521 14 0.0 0.0 0.00 0.00 0.00 97 1021.8
20260906082521 14 0.0 0.0 0.00 0.00 0.00 96 1021.6
20260906081519 15 0.0 0.0 0.00 0.00 0.00 96 1021.7
20260906080517 15 0.0 0.0 0.00 0.00 0.00 97 1021.6
20260906075537 15 0.0 0.0 0.00 0.00 0.00 97 1021.4
20260906074527 15 0.0 0.0 0.00 0.00 0.00 97 1021.7
20260906073516 15 0.0 0.0 0.00 0.00 0.00 97 1021.8
20260906072542 15 0.0 0.0 0.00 0.00 0.00 96 1021.8
20260906071516 15 0.0 0.0 0.00 0.00 0.00 96 1021.7
20260906070516 15 0.0 0.0 0.00 0.00 0.00 96 1021.6
20260906065516 15 0.0 1.6 0.00 0.00 0.00 97 1021.6
20260906064516 15 0.0 1.6 0.00 0.00 0.00 97 1021.5
20260906063516 15 0.0 0.0 0.00 0.00 0.00 96 1021.5
20260906062516 15 0.0 0.0 0.00 0.00 0.00 96 1021.5
20260906061516 15 0.0 0.0 0.00 0.00 0.00 96 1021.5
20260906060516 15 0.0 0.0 0.00 0.00 0.00 97 1021.3
20260906055516 15 0.0 0.0 0.00 0.00 0.00 96 1021.1
20260906054515 15 0.0 0.0 0.00 0.00 0.00 96 1021.1
20260906053516 15 0.0 0.0 0.00 0.00 0.00 96 1021.1
20260906052516 15 0.0 0.0 0.00 0.00 0.00 96 1020.8
20260906051516 16 0.0 0.0 0.00 0.00 0.00 96 1020.6
20260906050519 16 0.0 0.0 0.00 0.00 0.00 96 1020.6
20260906045516 16 0.0 0.0 0.00 0.00 0.00 96 1020.6
20260906044516 16 0.0 0.0 0.00 0.00 0.00 95 1020.4
20260906043516 16 0.0 0.0 0.00 0.00 0.00 95 1020.6
20260906042516 16 0.0 0.0 0.00 0.00 0.00 93 1020.5
20260906041516 16 0.0 0.0 0.00 0.00 0.00 94 1020.5
20260906040516 16 0.0 0.0 0.00 0.00 0.00 93 1020.4
20260906035516 17 0.0 0.0 0.00 0.00 0.00 93 1020.5
20260906034516 17 0.0 0.0 0.00 0.00 0.00 93 1020.4
20260906033536 17 0.0 0.0 0.00 0.00 0.00 91 1020.3
20260906032515 17 0.0 0.0 0.00 0.00 0.00 92 1020.4
20260906031536 17 0.0 0.0 0.00 0.00 0.00 92 1020.4
20260906030515 17 0.0 0.0 0.00 0.00 0.00 95 1020.2
20260906025516 17 0.0 0.0 0.00 0.00 0.00 95 1020.1
20260906024515 17 0.0 0.0 0.00 0.00 0.00 95 1020.0
20260906023516 17 0.0 0.0 0.00 0.00 0.00 93 1020.1
20260906022536 17 0.0 0.0 0.00 0.00 0.00 94 1020.0
20260906021536 17 0.0 0.0 0.00 0.00 0.00 94 1020.0
20260906020516 17 0.0 0.0 0.00 0.00 0.00 92 1020.1
20260906015515 17 0.0 0.0 0.00 0.00 0.00 91 1020.0
20260906014515 17 0.0 0.0 0.00 0.00 0.00 90 1020.0
20260906013515 18 0.0 0.0 0.00 0.00 0.00 89 1019.9
20260906012515 18 0.0 0.0 0.00 0.00 0.00 89 1019.9
20260906011517 18 0.0 0.0 0.00 0.00 0.00 88 1019.8
20260906010517 18 0.0 0.0 0.00 0.00 0.00 88 1019.9
20260906005516 18 0.0 0.0 0.00 0.00 0.00 87 1019.8
20260906004517 19 0.0 0.0 0.00 0.00 0.00 85 1019.8
20260906003539 19 0.0 1.6 0.00 0.00 0.00 85 1019.6
20260906002518 20 0.0 0.0 0.00 0.00 0.00 85 1019.8
20260906001518 20 0.0 1.6 0.00 0.00 0.00 84 1019.6
20260906000519 20 0.0 3.2 0.00 0.00 0.00 82 1019.6
20260905235538 21 0.0 1.6 0.00 0.00 0.00 83 1019.7
20260905234517 21 0.0 3.2 0.00 0.00 0.00 82 1019.7
20260905233517 21 0.0 4.8 0.00 0.00 0.00 80 1019.8
20260905232557 22 68 1.6 4.8 0.00 0.00 0.00 79 1019.8
20260905231517 22 45 1.6 8.0 0.00 0.00 0.00 77 1019.8
20260905230517 22 68 1.6 6.4 0.00 0.00 0.00 78 1019.9
20260905225517 22 45 3.2 9.7 0.00 0.00 0.00 77 1020.1
20260905224517 22 45 1.6 6.4 0.00 0.00 0.00 77 1020.0
20260905223517 22 45 6.4 11.3 0.00 0.00 0.00 75 1019.7
20260905222517 23 68 4.8 9.7 0.00 0.00 0.00 77 1019.8
20260905221517 23 68 3.2 9.7 0.00 0.00 0.00 77 1019.7
20260905220537 23 68 3.2 11.3 0.00 0.00 0.00 76 1019.7
20260905215518 23 45 3.2 12.9 0.00 0.00 0.00 79 1019.6
20260905214517 23 68 4.8 11.3 0.00 0.00 0.00 77 1019.7
20260905213517 23 45 4.8 9.7 0.00 0.00 0.00 78 1019.8
20260905212517 23 45 4.8 11.3 0.00 0.00 0.00 79 1019.8
20260905211517 23 68 3.2 8.0 0.00 0.00 0.00 80 1019.7
20260905210517 23 68 4.8 11.3 0.00 0.00 0.00 80 1019.9
20260905205537 22 0.0 1.6 0.00 0.00 0.00 84 1019.8
20260905204517 22 45 1.6 6.4 0.00 0.00 0.00 83 1019.8
20260905203517 23 45 3.2 14.5 0.00 0.00 0.00 81 1019.7
20260905202537 23 23 1.6 6.4 0.00 0.00 0.00 79 1019.7
20260905201517 24 68 1.6 9.7 0.00 0.00 0.00 81 1019.8
20260905200517 23 68 6.4 9.7 0.00 0.00 0.00 82 1019.8
20260905195517 24 23 4.8 11.3 0.00 0.00 0.00 84 1019.8
20260905194538 23 68 4.8 11.3 0.00 0.00 0.00 82 1019.8
20260905193517 23 45 4.8 9.7 0.00 0.00 0.00 82 1019.9
20260905192517 23 45 6.4 11.3 0.00 0.00 0.00 81 1019.9
20260905191517 23 68 1.6 6.4 0.00 0.00 0.00 84 1020.0
20260905190517 22 45 4.8 11.3 0.00 0.00 0.00 85 1019.9
20260905185517 22 68 6.4 12.9 0.00 0.00 0.00 85 1019.9
20260905184517 22 45 6.4 12.9 0.00 0.00 0.00 84 1020.1
20260905183517 22 45 4.8 9.7 0.00 0.00 0.00 88 1020.1
20260905182517 21 45 1.6 4.8 0.00 0.00 0.00 89 1020.1
20260905181537 21 68 3.2 8.0 0.00 0.00 0.00 88 1020.2
20260905180517 21 45 4.8 9.7 0.00 0.00 0.00 88 1020.0
20260905175517 21 45 6.4 11.3 0.00 0.00 0.00 89 1020.0
20260905174538 21 45 8.0 14.5 0.00 0.00 0.00 89 1020.0
20260905173539 21 23 6.4 12.9 0.00 0.00 0.00 90 1020.0
20260905172517 21 45 8.0 14.5 0.00 0.00 0.00 90 1020.1
20260905171518 21 45 6.4 12.9 0.00 0.00 0.00 90 1020.0
20260905170517 21 45 6.4 12.9 0.00 0.00 0.00 91 1020.2
20260905165517 21 45 8.0 12.9 0.00 0.00 0.00 92 1020.3
20260905164537 21 45 6.4 9.7 0.00 0.00 0.00 92 1020.4
20260905163517 21 45 8.0 14.5 0.00 0.00 0.00 92 1020.2
20260905162517 21 45 8.0 14.5 0.00 0.00 0.00 92 1020.2